Date String (YYYY-MM-DD hh:mm:ss) UTC,Instrument flags,Ambient pressure (hPa),Sample flow (lpm),Bypass flow (lpm),Sample temperature (°C),Ambient temperature (°C),ASC tube jacket temperature (°C),LED temperature (°C),Box temperature (°C),Sample RH (%),Span deviation,Mass concentration (μg/m³),Mass concentration (μg/m³),Mass concentration (μg/m³)
DateTimeUTC,F1_M11,P_M11,Q1_M11,Q2_M11,T1_M11,T2_M11,T3_M11,T4_M11,T5_M11,U1_M11,ZSPAN_M11,X2_M11,X0_M11,X1_M11
2023-01-05 10:00:00,,0825.9,5.00,0.00,22.4,20.8,00.0,31.4,24.1,08.0,0000.9,0007.16,0010.83,0006.75
2023-01-05 10:01:00,,0826.1,5.00,0.00,22.5,21.5,00.0,31.3,24.3,08.1,0000.9,0007.18,0010.73,0006.80
2023-01-05 10:02:00,,0826.2,5.00,0.00,22.6,22.4,00.0,31.3,24.5,08.1,0000.7,0007.26,0010.66,0006.90
2023-01-05 10:03:00,,0825.9,5.00,0.00,22.7,22.9,00.0,31.3,24.6,08.2,0000.2,0007.39,0010.67,0007.05
2023-01-05 10:04:00,,0825.9,4.99,0.00,22.7,22.4,00.0,31.4,24.6,08.1,0000.8,0007.51,0010.69,0007.16
2023-01-05 10:05:00,,0825.8,5.01,0.00,22.7,21.9,00.0,31.4,24.4,08.1,0001.5,0007.63,0010.80,0007.27
2023-01-05 10:06:00,,0825.8,5.00,0.00,22.6,21.5,00.0,31.4,24.3,08.1,0001.3,0007.71,0010.87,0007.35
2023-01-05 10:07:00,,0825.9,5.00,0.00,22.6,21.2,00.0,31.4,24.2,08.1,0001.0,0007.74,0010.87,0007.41
2023-01-05 10:08:00,,0825.8,5.01,0.00,22.5,21.1,00.0,31.4,24.1,08.2,0000.8,0007.93,0011.09,0007.57
2023-01-05 10:09:00,,0825.7,5.00,0.00,22.5,20.9,00.0,31.4,24.1,08.2,0000.5,0008.10,0011.35,0007.73
2023-01-05 10:10:00,,0825.7,5.01,0.00,22.4,20.8,00.0,31.4,24.1,08.3,0000.4,0008.24,0011.72,0007.88
2023-01-05 10:11:00,,0825.7,5.00,0.00,22.4,20.7,00.0,31.3,24.0,08.3,0000.3,0008.39,0011.90,0008.00
2023-01-05 10:12:00,,0825.7,5.01,0.00,22.4,21.4,00.0,31.3,24.2,08.3,0000.9,0008.51,0012.03,0008.12
2023-01-05 10:13:00,,0825.7,4.99,0.00,22.5,22.4,00.0,31.3,24.4,08.2,0001.1,0008.57,0012.15,0008.17
2023-01-05 10:14:00,,0825.7,5.00,0.00,22.7,23.0,00.0,31.3,24.6,08.2,0002.4,0008.60,0012.03,0008.19
2023-01-05 10:15:00,,0825.7,4.99,0.00,22.7,22.6,00.0,31.4,24.6,08.1,0002.8,0008.64,0012.05,0008.25
2023-01-05 10:16:00,,0825.6,5.01,0.00,22.7,22.0,00.0,31.4,24.5,08.1,0003.0,0008.67,0012.18,0008.27
2023-01-05 10:17:00,,0825.6,5.00,0.00,22.7,21.7,00.0,31.4,24.4,08.1,0003.2,0008.69,0012.39,0008.29
2023-01-05 10:18:00,,0825.6,4.99,0.00,22.6,21.4,00.0,31.4,24.3,08.1,0003.5,0008.75,0013.20,0008.32
2023-01-05 10:19:00,,0825.6,5.01,0.00,22.6,21.2,00.0,31.4,24.3,08.1,0003.4,0008.72,0013.87,0008.33
2023-01-05 10:20:00,,0825.7,5.00,0.00,22.6,21.1,00.0,31.4,24.2,08.1,0003.5,0008.73,0013.85,0008.34
2023-01-05 10:21:00,,0825.7,5.00,0.00,22.5,21.0,00.0,31.4,24.2,08.1,0003.7,0008.71,0014.13,0008.31
2023-01-05 10:22:00,,0825.7,5.00,0.00,22.5,20.9,00.0,31.4,24.1,08.0,0003.5,0008.66,0014.06,0008.28
2023-01-05 10:23:00,,0825.9,5.00,0.00,22.5,20.8,00.0,31.4,24.1,08.0,0003.0,0008.62,0014.30,0008.26
2023-01-05 10:24:00,,0825.9,4.99,0.00,22.4,20.7,00.0,31.3,24.1,07.9,0002.5,0008.60,0014.74,0008.24
2023-01-05 10:25:00,,0826.1,5.00,0.00,22.4,20.6,00.0,31.3,24.0,07.9,0001.4,0008.56,0014.76,0008.19
2023-01-05 10:26:00,,0825.7,5.02,0.00,22.4,20.9,00.0,31.3,24.1,08.0,0001.5,0008.51,0014.74,0008.13
2023-01-05 10:27:00,,0825.8,4.99,0.00,22.5,21.8,00.0,31.3,24.3,08.0,0001.7,0008.48,0014.58,0008.13
2023-01-05 10:28:00,,0825.8,5.00,0.00,22.6,22.7,00.0,31.3,24.5,08.0,0001.5,0008.46,0014.39,0008.14
2023-01-05 10:29:00,,0825.8,4.99,0.00,22.7,22.8,00.0,31.3,24.6,08.0,0001.4,0008.46,0013.68,0008.17
2023-01-05 10:30:00,,0826.0,5.00,0.00,22.7,22.3,00.0,31.4,24.5,08.1,0000.8,0008.51,0012.99,0008.21
2023-01-05 10:31:00,,0826.0,5.01,0.00,22.6,21.9,00.0,31.4,24.4,08.1,0000.6,0008.53,0013.03,0008.23
2023-01-05 10:32:00,,0825.7,5.00,0.00,22.6,21.6,00.0,31.4,24.4,08.2,0000.9,0008.69,0012.78,0008.39
2023-01-05 10:33:00,,0825.7,5.00,0.00,22.6,21.4,00.0,31.4,24.3,08.2,0001.3,0008.78,0013.25,0008.47
2023-01-05 10:34:00,,0825.8,5.00,0.00,22.6,21.3,00.0,31.4,24.3,08.3,0001.6,0008.97,0013.67,0008.65
2023-01-05 10:35:00,,0825.7,5.00,0.00,22.5,21.1,00.0,31.4,24.2,08.3,0002.4,0009.20,0013.49,0008.89
2023-01-05 10:36:00,,0826.1,5.01,0.00,22.5,21.0,00.0,31.4,24.2,08.4,0003.1,0009.45,0013.91,0009.17
2023-01-05 10:37:00,,0826.0,4.99,0.00,22.5,21.0,00.0,31.3,24.2,08.4,0003.0,0009.70,0014.88,0009.42
2023-01-05 10:38:00,,0826.0,5.00,0.00,22.5,20.9,00.0,31.3,24.1,08.4,0002.3,0009.89,0015.19,0009.60
2023-01-05 10:39:00,,0825.7,5.00,0.00,22.4,20.8,00.0,31.3,24.0,08.4,0002.1,0010.05,0015.41,0009.74
2023-01-05 10:40:00,,0826.0,4.99,0.00,22.4,20.8,00.0,31.3,24.0,08.3,0002.0,0010.14,0015.68,0009.82
2023-01-05 10:41:00,,0826.1,5.00,0.00,22.4,21.5,00.0,31.2,24.2,08.3,0001.9,0010.22,0015.98,0009.89
2023-01-05 10:42:00,,0825.7,4.99,0.00,22.5,22.5,00.0,31.2,24.5,08.3,0001.7,0010.36,0016.15,0010.03
2023-01-05 10:43:00,,0825.7,5.00,0.00,22.6,23.1,00.0,31.3,24.6,08.2,0001.0,0010.33,0016.01,0010.01
2023-01-05 10:44:00,,0825.6,4.99,0.00,22.7,22.7,00.0,31.3,24.6,08.2,0000.7,0010.38,0015.79,0010.07
2023-01-05 10:45:00,,0825.7,5.00,0.00,22.7,22.2,00.0,31.4,24.5,08.2,0001.4,0010.41,0015.20,0010.11
2023-01-05 10:46:00,,0825.6,5.00,0.00,22.7,21.8,00.0,31.4,24.4,08.3,0001.0,0010.41,0015.15,0010.11
2023-01-05 10:47:00,,0825.7,5.00,0.00,22.6,21.5,00.0,31.4,24.4,08.3,0000.1,0010.39,0015.05,0010.07
2023-01-05 10:48:00,,0825.7,4.99,0.00,22.6,21.3,00.0,31.4,24.3,08.3,-000.4,0010.37,0014.30,0010.05
2023-01-05 10:49:00,,0825.8,5.00,0.00,22.6,21.1,00.0,31.4,24.3,08.3,-000.6,0010.41,0014.30,0010.09
2023-01-05 10:50:00,,0825.8,5.01,0.00,22.5,21.0,00.0,31.4,24.2,08.3,-000.5,0010.50,0014.95,0010.19
2023-01-05 10:51:00,,0826.0,5.01,0.00,22.5,20.9,00.0,31.4,24.2,08.4,-001.1,0010.65,0015.06,0010.32
2023-01-05 10:52:00,,0826.3,5.00,0.00,22.5,20.9,00.0,31.4,24.1,08.4,-001.4,0010.80,0015.17,0010.46
2023-01-05 10:53:00,,0825.9,4.99,0.00,22.4,20.8,00.0,31.3,24.1,08.4,-001.1,0010.90,0015.59,0010.56
2023-01-05 10:54:00,,0826.0,5.00,0.00,22.4,20.7,00.0,31.3,24.1,08.4,-001.1,0010.97,0015.96,0010.62
2023-01-05 10:55:00,,0825.8,5.01,0.00,22.4,21.2,00.0,31.3,24.2,08.4,-001.4,0011.05,0016.32,0010.69
2023-01-05 10:56:00,,0825.8,5.00,0.00,22.5,22.1,00.0,31.2,24.4,08.4,-001.3,0011.23,0016.65,0010.85
2023-01-05 10:57:00,,0825.9,5.01,0.00,22.6,22.9,00.0,31.3,24.6,08.4,-001.3,0011.40,0016.87,0011.01
2023-01-05 10:58:00,,0825.9,5.00,0.00,22.7,22.8,00.0,31.3,24.7,08.3,-001.6,0011.54,0016.93,0011.17
2023-01-05 10:59:00,,0825.8,4.99,0.00,22.7,22.3,00.0,31.4,24.6,08.3,-001.3,0011.66,0017.01,0011.33
